Powrót do katalogu

COSMOS 886 DEB

AktywnyLEO
NORAD 9656·DEBRIS·🇷🇺 Russia

Wystrzelony Dec 27, 1976 z Baikonur Cosmodrome

Loading…

Następne Przeloty (najbliższe 24 godziny)

TLE

ŚwieżeSource: Space-Track

Epoka: Sep 13, 2026, 04:12 UTC

1 09656U 76126N   26256.17510901  .00000342  00000-0  28676-3 0  9994
2 09656  65.8195 289.2349 0855209  38.8673 327.0769 12.91042777293573

Śledź COSMOS 886 DEB w czasie rzeczywistym z AllMySat

Download on the App Store